Location: Monfort
(47.1967°N, 0.2115°W)
Time: 11:20:02
(UTC+00:00)

Cosmos 2263 Rocket - Pass Details

Date: 24 October 2020
Orbit: 822 x 850 km, 71.0° (Epoch: 27 November)

Event Time Altitude Azimuth Distance (km) Brightness Sun altitude
Rises 18:16:42 0° 339° (NNW) 3,416 5.6 -14.2°
Reaches altitude 10° 18:20:42 10° 6° (N) 2,482 4.6 -14.9°
Maximum altitude 18:23:18 13° 34° (NE) 2,263 4.1 -15.3°
Enters shadow 18:24:17 13° 45° (NE) 2,295 4.0 -15.5°
